Starlink 36079

operational
NORAD ID: 66897 Int'l Des: 2025-283 Owner: SPXS Country: US Constellation: starlink
LEOCIRCULAR

Über Starlink 36079

Beschreibung wird geladen...

Live-Position

3D-Globus wird geladen...

Nächste Überflüge

Höhenverlauf

Altitude vs Time

uPlot chart will show altitude changes over time

Zweizeiliger Elementsatz

1 66897U 25283V 25347.58336806 -.01346084 53193-3 -37059-2 0 9994
2 66897 53.1548 69.6056 0000847 60.1684 337.7530 15.93319782 2569
Epoch: 13. Dez. 2025 • Age: 21 hours

Aktueller Status

Höhe 299.1 km
Geschwindigkeit 7.73 km/s
Subsatellitenpunkt 8.03°N, 176.81°W
Startdatum 4. Dez. 2025
Alter 9 days
Typ internet

Technische Details

Klassifizierung Payload
Masse 575.00 kg
Trockenmasse 530.00 kg
Gesamtmasse 575.00 kg
Länge 0.30 m
Durchmesser 4.10 m
Spannweite 29.00 m
Form Box + pan
Hersteller SPXS
Bus-Typ Starlink V2MO
Phasenstatus In Orbit
Besitzer/Staat SPXS/US

Große Konstellationen

Loading constellations...